Lexington Weather

Lexington, Massachusetts, USA

69°F
6/18/2024 1:34am 
  • Lexington Conditions: Clear
  • Temperature: 69.1°F / 20.6°CColder 0.7°F than last hour.
  • Dew Point: 62.2°F 
  • Relative Humidity: 79%Increased 2.0% since last hour.
  • Wind: Calm, 10-min avg: Calm, gust: None
  • Barometer: 30.09 in Steady
  • Visibility: 10 miles
  • Rain Today: 0.00 in
  •   
Southeast Middlesex County, MA - Heat Advisory - Excessive Heat Watch
 - SEE ALL NEARBY ALERTS -

Regional Weather Roundup
for Boston, MA

        
000
ASUS41 KBOX 140310
RWRBOX

REGIONAL WEATHER ROUNDUP
NATIONAL WEATHER SERVICE BOSTON/NORTON MA
1100 PM EDT THU JUN 13 2024

NOTE:  "FAIR" INDICATES FEW OR NO CLOUDS BELOW 12,000 FEET WITH NO 
SIGNIFICANT WEATHER AND/OR OBSTRUCTIONS TO VISIBILITY.

MAZALL-140400-
EASTERN MASSACHUSETTS
  
CITY           SKY/WX    TMP DP  RH WIND       PRES   REMARKS
BOSTON         PTCLDY    73  58  59 SW13      29.92F                  
BEVERLY        CLEAR     72  57  59 SW9       29.91F                  
LAWRENCE       CLEAR     73  57  57 SW10G20   29.93F                  
BEDFORD        CLEAR     71  56  58 SW6       29.91F                  
NORWOOD        CLEAR     68  60  75 S6        29.94F                  
MARSHFIELD     PTCLDY    68  59  73 SW8G14    29.94F                  
PLYMOUTH       CLEAR     67  59  75 S6        29.97S                  
TAUNTON        CLEAR     70  60  70 S7        29.96F                  
NEW BEDFORD    CLEAR     66  61  84 SW8       29.97F                  
$$

MAZALL-140400-
CAPE COD AND THE ISLANDS
  
CITY           SKY/WX    TMP DP  RH WIND       PRES   REMARKS
FALMOUTH       CLEAR     64  61  88 S9        29.99F                  
HYANNIS        CLEAR     65  60  84 S8        29.97F                  
CHATHAM        CLEAR     66  61  84 SW8G17    30.00F                  
PROVINCETOWN   CLEAR     64  62  93 SW14      29.97F                  
NANTUCKET      CLEAR     62  60  93 S10         N/A                   
MARTHAS VNYRD  CLEAR     63  61  93 SW7       29.99F                  
$$
 
MAZALL-140400-
CENTRAL AND WESTERN MASSACHUSETTS
  
CITY           SKY/WX    TMP DP  RH WIND       PRES   REMARKS
WORCESTER      CLEAR     68  55  63 SW16G26   29.96F                  
FITCHBURG      CLEAR     73  55  53 SW8       29.93F                  
ORANGE         CLEAR     72  57  59 S13       29.94S                  
SPRINGFIELD    PTCLDY    71  55  56 S10       29.91S                  
WESTFIELD      CLEAR     70  57  63 S10       29.93S                  
NORTH ADAMS    CLEAR     75  58  55 CALM      29.92R                  
PITTSFIELD     CLEAR     70  56  61 SW6       29.94R                  
$$
 
RIZALL-140400-
RHODE ISLAND
  
CITY           SKY/WX    TMP DP  RH WIND       PRES   REMARKS
PROVIDENCE     PTCLDY    68  60  75 SW10      29.97F                  
NEWPORT        CLEAR     64  59  83 SW8       29.98F                  
BLOCK ISLAND   CLEAR     63  60  90 SW10      30.00F                  
SMITHFIELD     CLEAR     67  60  78 SW8       29.97F                  
WESTERLY       CLEAR     67  60  78 S7        29.98F                  
$$
 
CTZALL-140400-
CONNECTICUT
  
CITY           SKY/WX    TMP DP  RH WIND       PRES   REMARKS
BRADLEY INTL   PTCLDY    74  57  55 S10       29.94F                  
HARTFORD       CLEAR     71  59  65 S8        29.94F                  
PLAINVILLE     CLEAR     70  61  71 S5        29.94F                  
BRIDGEPORT     CLEAR     70  61  73 SW8       29.96F                  
DANBURY        CLEAR     72  59  63 S6        29.96F                  
GROTON         CLEAR     68  62  81 CALM      29.97F                  
NEW HAVEN      CLEAR     69  62  78 CALM      29.97F                  
CHESTER        CLEAR     68  63  83 S6G13     29.98F                  
MERIDEN        CLEAR     69  57  65 SE5       29.95F                  
WILLIMANTIC    CLEAR     69  59  70 S7        29.97F                  
OXFORD         CLEAR     67  59  75 S7        29.98F                  
$$

MEZ002-015-021-024-NHZ003-005-008-011-012-014-VTZ005-008-140400-
NORTHERN NEW ENGLAND
  
CITY           SKY/WX    TMP DP  RH WIND       PRES   REMARKS
PORTLAND ME    MOCLDY    67  61  81 S7        29.88F                  
BANGOR ME      CLOUDY    64  55  72 S9        29.87F                  
CONCORD NH     CLEAR     71  59  65 S3        29.90S                  
MANCHESTER NH  PTCLDY    75  57  53 S10       29.90S                  
NASHUA NH      CLEAR     73  59  61 VRB3      29.92F                  
PORTSMOUTH NH  MOCLDY    73  60  63 SW7       29.88F                  
JAFFREY NH     CLEAR     72  56  57 SW7       29.95R                  
KEENE NH       CLEAR     70  59  68 S7        29.92R                  
BURLINGTON VT  PTCLDY    76  57  51 S10G21    29.78S                  
MT. WASHINGTON PTCLDY    50  46  87 SW33G46     N/A                   
$$

NYZ052-076-140400-
EASTERN NEW YORK
  
CITY           SKY/WX    TMP DP  RH WIND       PRES   REMARKS
ALBANY         PTCLDY    76  57  51 S12G21    29.88R                  
NEW YORK CITY  PTCLDY    76  58  53 SW13G20   29.95F                  
$$
 
ANZALL-140400-
MARINE OBSERVATIONS
  
STATION/POSITION TIME  TEMP    WIND        PRES    VSBY  WAVE
                       AIR SEA DIR/SP/G                  HT/PER
                 (UTC) (F)     (DEG/KT/KT) (MB)    (MI)  (FT/S)
BOSTON BUOY      0240   67 64  200/ 10/ 12 1013.9F
BUZZARDS BAY     0200   65     230/ 14/ 15 1015.9F
NANTUCKET SOUND  0240   66 67  220/ 14/ 16 1015.3F
MASS BAY-STELLWA 0104   67 63  200/ 10/ 10 1013.8R  1 7/8  3/ 4
ISLE OF SHOALS   0200   70     200/ 18/ 19 1012.2R
S OF BLOCK IS    0256      63                N/A           3/ 8
$$

......................KEY.........................
  SKY/WX - SKY CONDITION/PRESENT WEATHER
  TMP    - TEMPERATURE IN FAHRENHEIT
  DWPT   - DEWPOINT IN FAHRENHEIT
  RH     - RELATIVE HUMIDITY IN PERCENT
  WIND   - DIRECTION AND SPEED IN MPH
  PRES   - MEAN SEA LEVEL PRESSURE IN INCHES OF HG
  WCI    - WIND CHILL INDEX
  VSB    - VISIBILITY IN MILES
  HX     - HEAT INDEX
  TC     - TEMPERATURE IN CELSIUS
  VRB    - VARIABLE WIND DIRECTION
  N/A    - NOT AVAILABLE
  
      

Other recent Regional Weather Roundups

Tue Jun 18, 1:10am EDT

Tue Jun 18, 12:10am EDT

Mon Jun 17, 11:10pm EDT

Mon Jun 17, 10:10pm EDT

Mon Jun 17, 9:10pm EDT

Mon Jun 17, 8:10pm EDT

Mon Jun 17, 7:10pm EDT

Mon Jun 17, 6:10pm EDT

Mon Jun 17, 5:10pm EDT

Mon Jun 17, 4:10pm EDT

Mon Jun 17, 3:10pm EDT

Mon Jun 17, 2:10pm EDT

Mon Jun 17, 1:10pm EDT

Mon Jun 17, 12:10pm EDT

Mon Jun 17, 11:10am EDT

Mon Jun 17, 10:10am EDT

Mon Jun 17, 9:10am EDT

Mon Jun 17, 8:10am EDT

Mon Jun 17, 7:10am EDT

Mon Jun 17, 6:10am EDT

Mon Jun 17, 5:10am EDT

Mon Jun 17, 4:10am EDT

Mon Jun 17, 3:10am EDT

Mon Jun 17, 2:10am EDT

Mon Jun 17, 1:10am EDT

Mon Jun 17, 12:10am EDT

Sun Jun 16, 11:10pm EDT

Sun Jun 16, 10:10pm EDT

Sun Jun 16, 9:10pm EDT

Sun Jun 16, 8:10pm EDT

Sun Jun 16, 7:10pm EDT

Sun Jun 16, 6:10pm EDT

Sun Jun 16, 5:10pm EDT

Sun Jun 16, 4:10pm EDT

Sun Jun 16, 3:10pm EDT

Sun Jun 16, 2:10pm EDT

Sun Jun 16, 1:10pm EDT

Sun Jun 16, 12:10pm EDT

Sun Jun 16, 11:10am EDT

Sun Jun 16, 10:10am EDT

Sun Jun 16, 9:10am EDT

Sun Jun 16, 8:10am EDT

Sun Jun 16, 7:10am EDT

Sun Jun 16, 6:10am EDT

Sun Jun 16, 5:10am EDT

Sun Jun 16, 4:10am EDT

Sun Jun 16, 3:10am EDT

Sun Jun 16, 2:10am EDT

Sun Jun 16, 1:10am EDT

Sun Jun 16, 12:10am EDT

Sat Jun 15, 11:10pm EDT

Sat Jun 15, 10:10pm EDT

Sat Jun 15, 9:10pm EDT

Sat Jun 15, 8:10pm EDT

Sat Jun 15, 7:10pm EDT

Sat Jun 15, 6:10pm EDT

Sat Jun 15, 5:10pm EDT

Sat Jun 15, 4:10pm EDT

Sat Jun 15, 3:10pm EDT

Sat Jun 15, 2:10pm EDT

Sat Jun 15, 1:10pm EDT

Sat Jun 15, 12:10pm EDT

Sat Jun 15, 11:10am EDT

Sat Jun 15, 10:10am EDT

Sat Jun 15, 9:10am EDT

Sat Jun 15, 8:10am EDT

Sat Jun 15, 7:10am EDT

Sat Jun 15, 6:10am EDT

Sat Jun 15, 5:10am EDT

Sat Jun 15, 4:10am EDT

Sat Jun 15, 3:10am EDT

Sat Jun 15, 2:10am EDT

Sat Jun 15, 1:10am EDT

Sat Jun 15, 12:10am EDT

Fri Jun 14, 11:10pm EDT

Fri Jun 14, 10:10pm EDT

Fri Jun 14, 9:10pm EDT

Fri Jun 14, 8:10pm EDT

Fri Jun 14, 7:10pm EDT

Fri Jun 14, 6:10pm EDT

Fri Jun 14, 5:10pm EDT

Fri Jun 14, 4:10pm EDT

Fri Jun 14, 3:10pm EDT

Fri Jun 14, 2:10pm EDT

Fri Jun 14, 1:10pm EDT

Fri Jun 14, 12:10pm EDT

Fri Jun 14, 11:10am EDT

Fri Jun 14, 10:10am EDT

Fri Jun 14, 9:10am EDT

Fri Jun 14, 8:10am EDT

Fri Jun 14, 7:10am EDT

Fri Jun 14, 6:10am EDT

Fri Jun 14, 5:10am EDT

Fri Jun 14, 4:10am EDT

Fri Jun 14, 3:10am EDT

Fri Jun 14, 2:10am EDT

Fri Jun 14, 1:10am EDT

Fri Jun 14, 12:10am EDT

Thu Jun 13, 10:10pm EDT

Thu Jun 13, 9:10pm EDT

Thu Jun 13, 8:10pm EDT

Thu Jun 13, 7:10pm EDT

Thu Jun 13, 6:10pm EDT

Thu Jun 13, 5:10pm EDT

Thu Jun 13, 4:10pm EDT

Thu Jun 13, 3:10pm EDT

Thu Jun 13, 2:10pm EDT

Thu Jun 13, 1:10pm EDT

Thu Jun 13, 12:10pm EDT

Thu Jun 13, 11:10am EDT

Thu Jun 13, 10:10am EDT

Thu Jun 13, 9:10am EDT

Thu Jun 13, 8:10am EDT

Thu Jun 13, 7:10am EDT

Thu Jun 13, 6:10am EDT

Thu Jun 13, 5:10am EDT

Thu Jun 13, 4:10am EDT

Thu Jun 13, 3:10am EDT

Thu Jun 13, 2:10am EDT

Thu Jun 13, 1:10am EDT

Thu Jun 13, 12:10am EDT

Wed Jun 12, 11:10pm EDT

Wed Jun 12, 10:10pm EDT

Wed Jun 12, 9:10pm EDT

Wed Jun 12, 8:10pm EDT

Wed Jun 12, 7:10pm EDT

Wed Jun 12, 6:10pm EDT

Wed Jun 12, 5:10pm EDT

Wed Jun 12, 4:10pm EDT

Wed Jun 12, 3:10pm EDT

Wed Jun 12, 2:10pm EDT

Wed Jun 12, 1:10pm EDT

Wed Jun 12, 12:10pm EDT

Wed Jun 12, 11:10am EDT

Wed Jun 12, 10:10am EDT

Wed Jun 12, 9:10am EDT

Wed Jun 12, 8:10am EDT

Wed Jun 12, 7:10am EDT

Wed Jun 12, 6:10am EDT

Wed Jun 12, 5:10am EDT

Wed Jun 12, 4:10am EDT

Wed Jun 12, 3:10am EDT

Wed Jun 12, 2:10am EDT

Wed Jun 12, 1:10am EDT

Wed Jun 12, 12:10am EDT

Tue Jun 11, 11:10pm EDT

Tue Jun 11, 10:10pm EDT

Tue Jun 11, 9:10pm EDT

Tue Jun 11, 8:10pm EDT

Tue Jun 11, 7:10pm EDT

Tue Jun 11, 6:10pm EDT

Tue Jun 11, 5:10pm EDT

Tue Jun 11, 4:10pm EDT

Tue Jun 11, 3:10pm EDT

Tue Jun 11, 2:10pm EDT

Tue Jun 11, 1:10pm EDT

Tue Jun 11, 12:10pm EDT

Tue Jun 11, 11:10am EDT

Tue Jun 11, 10:10am EDT

Tue Jun 11, 9:10am EDT

Tue Jun 11, 8:10am EDT

Tue Jun 11, 7:10am EDT

Tue Jun 11, 6:10am EDT

Tue Jun 11, 5:10am EDT

Tue Jun 11, 4:10am EDT

Tue Jun 11, 3:10am EDT

Tue Jun 11, 2:10am EDT